Location: Miles
(41.4492°N, 81.6087°W)
Time: 08:54:14
(UTC+00:00)

Transit 2A - Pass Details

Date: 22 September 2024
Orbit: 590 x 960 km, 66.7° (Epoch: 09 October)

Event Time Altitude Azimuth Distance (km) Brightness Sun altitude
Rises 05:49:02 0° 336° (NNW) 3,639 10.0 -47.9°
Reaches altitude 10° 05:52:10 10° 349° (N) 2,666 9.2 -47.8°
Enters shadow 05:52:46 12° 353° (N) 2,498 9.1 -47.8°
Maximum altitude 05:57:12 25° 43° (NE) 1,754 - -47.6°
Drops below altitude 10° 06:01:59 10° 98° (E) 2,510 - -47.3°
Sets 06:04:48 0° 111° (ESE) 3,382 - -47.2°
